Regional Weather Roundup
Issued by NWS

Home | Current Version | Previous Version | Graphics & Text | Print | Product List | Glossary Off
Versions: 1 2 3 4 5 6 7 8 9 10 11 12 13 14 15 16 17 18 19 20 21 22 23 24 25 26 27 28 29 30 31 32 33 34 35 36 37 38 39 40 41 42 43 44 45 46 47 48 49 50

000
ASUS43 KTOP 301208
RWRKS

WEATHER ROUNDUP FOR KANSAS
NATIONAL WEATHER SERVICE GOODLAND KS
700 AM CDT TUE SEP 30 2014

NOTE:  "FAIR" INDICATES FEW OR NO CLOUDS BELOW 12,000 FEET WITH NO
SIGNIFICANT WEATHER AND/OR OBSTRUCTIONS TO VISIBILITY.

KSZ001>006-013>018-027>032-041>047-301300-
NORTHWEST KANSAS

CITY           SKY/WX    TMP DP  RH WIND       PRES   REMARKS
GOODLAND       CLEAR     47  45  93 SW8       29.87R
6HR MIN TEMP:  47; 6HR MAX TEMP:  57;

HAYS           CLOUDY    63  55  77 S10       29.85S
HILL CITY      PTCLDY    60  57  89 SW5       29.84R
6HR MIN TEMP:  60; 6HR MAX TEMP:  67; 6HR PCP: TRACE;

RUSSELL        HVY RAIN  63  59  87 SW14      29.86R FOG
6HR MIN TEMP:  63; 6HR MAX TEMP:  68; 6HR PCP:  0.25;

$$

KSZ061>065-074>080-084>089-301300-
SOUTHWEST KANSAS

CITY           SKY/WX    TMP DP  RH WIND       PRES   REMARKS
DODGE CITY     CLOUDY    64  54  69 S14       29.85F
6HR MIN TEMP:  64; 6HR MAX TEMP:  70; 6HR PCP: TRACE;

ELKHART          N/A     59  54  84 S7          N/A
GARDEN CITY    CLOUDY    62  59  90 N7        29.85R
6HR MIN TEMP:  62; 6HR MAX TEMP:  63; 6HR PCP:  0.49;

GREAT BEND     CLOUDY    63  55  77 S17       29.86F
LIBERAL        PTCLDY    63  54  72 SE10      29.85S
PRATT          CLOUDY    64  55  72 S12       29.89R
$$

KSZ066>073-081>083-090>101-301300-
SOUTHEAST KANSAS

CITY           SKY/WX    TMP DP  RH WIND       PRES   REMARKS
CHANUTE        CLEAR     59  58  96 SE6       29.93R
6HR MIN TEMP:  59; 6HR MAX TEMP:  64;

COFFEYVILLE    CLEAR     58  56  93 CALM      29.93R
6HR MIN TEMP:  57; 6HR MAX TEMP:  64;

HUTCHINSON     MOCLDY    67  57  70 SE12      29.87F
6HR MIN TEMP:  65; 6HR MAX TEMP:  68;

MEDICINE LODGE   N/A     66  57  72 SE8       29.87S
NEWTON         PTCLDY    61  54  77 S8        29.92S
PARSONS        CLEAR     57  57 100 CALM      29.94R
6HR MIN TEMP:  56; 6HR MAX TEMP:  61;

WICHITA INTL   MOCLDY    63  57  81 S8        29.89F
6HR MIN TEMP:  63; 6HR MAX TEMP:  69;

WICHITA JABRA  PTCLDY    62  57  83 S7        29.90F
6HR MIN TEMP:  61; 6HR MAX TEMP:  65;

WICHITA MCCONL PTCLDY    64  61  90 SE7       29.91S
WINFIELD       PTCLDY    63  59  87 SE7       29.92S
6HR MIN TEMP:  63; 6HR MAX TEMP:  67;

$$

KSZ007>012-019>026-033>040-048>060-102>105-301300-
NORTHEAST KANSAS

CITY           SKY/WX    TMP DP  RH WIND       PRES   REMARKS
CONCORDIA      LGT RAIN  66  59  78 S17       29.84S
6HR MIN TEMP:  65; 6HR MAX TEMP:  68; 6HR PCP:  0.02;

EMPORIA        CLEAR     60  58  92 S8        29.92S
6HR MIN TEMP:  59; 6HR MAX TEMP:  63;

LAWRENCE       CLEAR     59  56  89 E5        29.92S
6HR MIN TEMP:  55; 6HR MAX TEMP:  61;

MANHATTAN      MOCLDY    63  58  83 CALM      29.88F
6HR MIN TEMP:  62; 6HR MAX TEMP:  69;

MARYSVILLE     CLEAR     63  59  88 SE3       29.87S
OLATHE IND     CLEAR     62  58  86 SE6       29.93S
6HR MIN TEMP:  59; 6HR MAX TEMP:  66;

OLATHE EXE     CLEAR     61  58  90 S5        29.93R
6HR MIN TEMP:  60; 6HR MAX TEMP:  67;

SALINA         CLOUDY    68  58  70 S10       29.86F
6HR MIN TEMP:  66; 6HR MAX TEMP:  69;

TOPEKA BILLARD CLEAR     61  60  97 CALM      29.91S
6HR MIN TEMP:  60; 6HR MAX TEMP:  67;

TOPEKA FORBES  CLEAR     60  57  89 S6        29.91F
6HR MIN TEMP:  57; 6HR MAX TEMP:  63;

$$



USA.gov is the U.S. government's official web portal to all federal, state and local government web resources and services.